Flag for Germany Weather past 2 weeks in Varel, Lower Saxony, Germany

Now
43 °F

Sprinkles. Passing clouds.


Feels Like: 36 °F
Forecast: 28 / 36 °F
Wind: 14 mph from Northwest

Location: Wittmundhaven

Current Time: Dec 25, 2014 at 7:01:13 AM

Latest Report: Dec 25, 2014 at 6:20 AM


Visibility: N/A

Pressure: 29.89 "Hg

Humidity: 87%

Dew point: 39 °F

Location of VarelLocation

Historic Weather in Varel — Graph

°F

Varel temperature yesterday

Maximum temperature yesterday: 50 °F (at 12:20 AM)
Minimum temperature yesterday: 41 °F (at 8:20 PM)
Average temperature yesterday: 46 °F

Past Weeks' High & Low Weather Summary

 TemperatureHumidityPressure
High54 °F (Dec 18, 6:20 PM)100% (Dec 13, 10:20 PM)30.21 "Hg (Dec 13, 10:20 PM)
Low30 °F (Dec 14, 1:20 AM)71% (Dec 10, 2:20 PM)29.15 "Hg (Dec 12, 11:20 AM)
Average43 °F87%29.74 "Hg
* Reported Dec 10 5:20 AM — Dec 25 5:20 AM, Varel, Weather by CustomWeather, © 2014

Note: Actual official high and low records may vary slightly from our data, if they occured in-between our weather recording intervals... More about our weather records

Advertising

Varel weather history for previous 24 hours

 ConditionsComfort  
Time TempWeatherWind HumidityBarometerVisibility
5:20 AM
Dec 25
41 °FPassing clouds.18 mph87%29.89 "HgN/A
4:20 AM43 °FThunderstorms. Passing clouds.21 mph81%29.89 "Hg3 mi
4:00 AM43 °FThundershowers. Passing clouds.21 mph81%29.89 "HgN/A
3:20 AM43 °FPassing clouds.18 mph87%29.89 "HgN/A
2:20 AM43 °FPassing clouds.17 mph81%29.89 "HgN/A
1:20 AM43 °FPassing clouds.15 mph81%29.92 "HgN/A
12:20 AM41 °FPassing clouds.14 mph87%29.92 "HgN/A
11:20 PM
Dec 24
41 °FPassing clouds.14 mph87%29.92 "HgN/A
10:20 PM41 °FSprinkles. Passing clouds.15 mph87%29.89 "HgN/A
9:20 PM41 °FSprinkles. Passing clouds.16 mph81%29.89 "HgN/A
8:20 PM41 °FPassing clouds.13 mph81%29.89 "HgN/A
7:20 PM43 °FPassing clouds.10 mph76%29.89 "HgN/A
6:20 PM43 °FPassing clouds.17 mph76%29.86 "HgN/A
5:20 PM43 °FPassing clouds.14 mph76%29.86 "HgN/A
4:20 PM45 °FPassing clouds.15 mph71%29.83 "HgN/A
3:20 PM46 °FPassing clouds.22 mph71%29.83 "HgN/A
2:20 PM46 °FPassing clouds.20 mph76%29.80 "HgN/A
1:20 PM46 °FPassing clouds.21 mph76%29.80 "HgN/A
12:20 PM46 °FScattered clouds.20 mph82%29.77 "HgN/A
11:20 AM48 °FBroken clouds.20 mph76%29.77 "HgN/A
10:20 AM48 °FPartly sunny.22 mph87%29.74 "HgN/A
9:20 AM50 °FDrizzle. Partly sunny.26 mph88%29.71 "Hg4 mi
8:20 AM48 °FDrizzle. Fog.22 mph94%29.68 "Hg1 mi
7:20 AM48 °FDrizzle. Fog.21 mph94%29.68 "Hg1 mi
Weather by CustomWeather, © 2014

See weather overviewHow to use our weather pages